TimeCDT,TemperatureF,Dew PointF,Humidity,Sea Level PressureIn,VisibilityMPH,Wind Direction,Wind SpeedMPH,Gust SpeedMPH,PrecipitationIn,Events,Conditions,WindDirDegrees,DateUTC
12:54 AM,45.0,37.0,74,30.12,10.0,Calm,Calm,-,N/A,,Clear,0,2013-03-21 05:54:00
1:54 AM,43.0,37.0,80,30.11,10.0,Calm,Calm,-,N/A,,Clear,0,2013-03-21 06:54:00
2:54 AM,42.1,36.0,79,30.10,10.0,Calm,Calm,-,N/A,,Clear,0,2013-03-21 07:54:00
3:54 AM,43.0,37.9,82,30.09,10.0,Calm,Calm,-,N/A,,Clear,0,2013-03-21 08:54:00
4:54 AM,44.1,39.0,82,30.09,10.0,Calm,Calm,-,N/A,,Clear,0,2013-03-21 09:54:00
5:54 AM,45.0,39.0,80,30.09,10.0,Calm,Calm,-,N/A,,Clear,0,2013-03-21 10:54:00
6:54 AM,48.0,34.0,58,30.10,10.0,Calm,Calm,-,N/A,,Clear,0,2013-03-21 11:54:00
7:54 AM,48.9,32.0,52,30.09,10.0,Calm,Calm,-,N/A,,Clear,0,2013-03-21 12:54:00
8:54 AM,52.0,34.0,50,30.10,10.0,Variable,4.6,-,N/A,,Partly Cloudy,0,2013-03-21 13:54:00
9:54 AM,55.9,34.0,44,30.09,10.0,Variable,6.9,-,N/A,,Scattered Clouds,0,2013-03-21 14:54:00
10:54 AM,59.0,33.1,38,30.08,10.0,Variable,4.6,-,N/A,,Scattered Clouds,0,2013-03-21 15:54:00
11:54 AM,62.1,33.1,34,30.06,10.0,Variable,6.9,-,N/A,,Mostly Cloudy,0,2013-03-21 16:54:00
12:54 PM,66.0,33.1,29,30.02,10.0,Variable,6.9,-,N/A,,Mostly Cloudy,0,2013-03-21 17:54:00
1:54 PM,64.0,30.9,29,29.98,10.0,SE,9.2,-,N/A,,Mostly Cloudy,140,2013-03-21 18:54:00
2:54 PM,66.9,35.1,31,29.93,10.0,Variable,5.8,-,N/A,,Mostly Cloudy,0,2013-03-21 19:54:00
3:54 PM,68.0,36.0,31,29.90,10.0,Variable,6.9,-,N/A,,Partly Cloudy,0,2013-03-21 20:54:00
4:54 PM,69.1,35.1,29,29.87,10.0,Variable,5.8,-,N/A,,Clear,0,2013-03-21 21:54:00
5:54 PM,66.9,36.0,32,29.86,10.0,South,8.1,-,N/A,,Clear,170,2013-03-21 22:54:00
6:54 PM,64.0,37.9,38,29.87,10.0,Variable,4.6,-,N/A,,Mostly Cloudy,0,2013-03-21 23:54:00
7:54 PM,62.1,41.0,46,29.88,10.0,Variable,3.5,-,N/A,,Overcast,0,2013-03-22 00:54:00
8:54 PM,62.1,41.0,46,29.86,10.0,Variable,4.6,-,N/A,,Overcast,0,2013-03-22 01:54:00
9:54 PM,61.0,42.1,50,29.88,10.0,Variable,6.9,-,N/A,,Overcast,0,2013-03-22 02:54:00
10:54 PM,60.1,43.0,53,29.90,10.0,Variable,5.8,-,N/A,,Overcast,0,2013-03-22 03:54:00
11:54 PM,59.0,46.0,62,29.89,10.0,Calm,Calm,-,0.00,,Overcast,0,2013-03-22 04:54:00